Regional Weather Roundup
Issued by NWS

Home | Current Version | Previous Version | Graphics & Text | Print | Product List | Glossary On
Versions: 1 2 3 4 5 6 7 8 9 10 11 12 13 14 15 16 17 18 19 20 21 22 23 24 25 26 27 28 29 30 31 32 33 34 35 36 37 38 39 40 41 42 43 44 45 46 47 48 49 50
000
ASUS43 KOAX 172110
RWRNE

WEATHER ROUNDUP FOR NEBRASKA
NATIONAL WEATHER SERVICE OMAHA NE
400 PM CDT TUE OCT 17 2017

NOTES: SATELLITE DATA IS BEING USED TO AUGMENT CLOUD COVER ABOVE
       12000 FEET.
       "FAIR" INDICATES FEW OR NO CLOUDS BELOW 12,000 FEET WITH NO
       SIGNIFICANT WEATHER AND/OR OBSTRUCTIONS TO VISIBILITY.


NEZ001>004-019>022-054>056-172200-
NEBRASKA PANHANDLE

CITY           SKY/WX    TMP DP  RH WIND       PRES   REMARKS
SCOTTSBLUFF    SUNNY     78  16   9 W8        30.00F
ALLIANCE       SUNNY     76  15  10 W13G24    29.99F
CHADRON        SUNNY     78  16   9 SW10      29.93F
GORDON         FAIR      77  23  13 SW8       29.96F
KIMBALL        SUNNY     78  18  10 W18       30.07F
SIDNEY         SUNNY     81  12   7 SW17      30.05F
$$

NEZ057>060-069>072-079>082-172200-
SOUTHWEST NEBRASKA

CITY           SKY/WX    TMP DP  RH WIND       PRES   REMARKS
NORTH PLATTE   SUNNY     79  27  14 SW8       30.00F
IMPERIAL       SUNNY     81  16   9 S10       30.03F
LEXINGTON      SUNNY     79  32  18 S6        30.01F
MCCOOK         SUNNY     80  28  15 S5        30.02F
OGALLALA       SUNNY     82  21  10 SW14G20   30.00F
$$

NEZ005>010-023>029-035>040-094-172200-
NORTH CENTRAL NEBRASKA

CITY           SKY/WX    TMP DP  RH WIND       PRES   REMARKS
VALENTINE      SUNNY     82  21  10 S15       29.93F
AINSWORTH      SUNNY     79  33  18 S14G20    29.96F
BROKEN BOW     SUNNY     77  38  24 S9        30.00F
O`NEILL        SUNNY     77  38  24 S9        29.98F
ORD            SUNNY     77  32  19 S8        29.99F
THEDFORD       SUNNY     80  27  14 W14       29.98F
$$

NEZ041-046>049-061>064-073>077-083>087-172200-
SOUTH CENTRAL NEBRASKA

CITY           SKY/WX    TMP DP  RH WIND       PRES   REMARKS
GRAND ISLAND   SUNNY     79  34  19 SW3       30.01F
AURORA         SUNNY     78  35  21 CALM      30.00F
HASTINGS       SUNNY     78  34  20 CALM      30.02F
HEBRON         SUNNY     75  42  29 S6        30.03S
HOLDREGE       SUNNY     78  35  20 CALM      30.02F
KEARNEY        SUNNY     79  33  19 SE3       30.02F
YORK           SUNNY     75  37  25 CALM      30.01F
$$

NEZ011>018-030>034-042>045-172200-
NORTHEAST NEBRASKA

CITY           SKY/WX    TMP DP  RH WIND       PRES   REMARKS
NORFOLK        SUNNY     78  35  21 SE5       29.97F
ALBION         SUNNY     79  34  19 CALM      29.99F
BLAIR          SUNNY     72  45  37 S10       30.02S
COLUMBUS       SUNNY     77  40  26 SW3       30.00F
FREMONT        SUNNY     72  44  36 S5        30.01F
TEKAMAH        SUNNY     72  42  34 S6        30.00F
WAYNE          SUNNY     78  38  23 CALM      29.97F
$$

NEZ050>053-065>068-078-088>093-172200-
SOUTHEAST NEBRASKA

CITY           SKY/WX    TMP DP  RH WIND       PRES   REMARKS
LINCOLN        SUNNY     73  46  38 S12       30.02F
OMAHA EPPLEY   MOSUNNY   72  44  36 S10       30.01F
BEATRICE       SUNNY     72  47  41 S12       30.03S
FALLS CITY     SUNNY     73  45  36 S10       30.04F
NEBRASKA CITY  SUNNY     72  46  39 S13       30.03F
PLATTSMOUTH    SUNNY     72  45  37 S10G16    30.02F
$$

NEZ044-045-051>053-067-172200-
OMAHA AREA

CITY           SKY/WX    TMP DP  RH WIND       PRES   REMARKS
OMAHA EPPLEY   MOSUNNY   72  44  36 S10       30.01F
BLAIR          SUNNY     72  45  37 S10       30.02S
FREMONT        SUNNY     72  44  36 S5        30.01F
MILLARD        SUNNY     73  48  41 S8        30.01F
OFFUTT AFB     SUNNY     72  44  36 S8        30.01F
PLATTSMOUTH    SUNNY     72  45  37 S10G16    30.02F
WAHOO          FAIR      73  43  34 S9        30.01F
$$




USA.gov is the U.S. government's official web portal to all federal, state and local government web resources and services.